This demonstration page uses our WeatherBlox Daily Observations layout. Learn more.

Left ArrowRight Arrow

40.92945, -100.16068

Hourly Observations for November 29, 2018

Temp ( °F °C ) Dew Point ( °F °C ) Humidity (%) Winds ( mph kmh ) Pressure ( in mb ) Visibility ( mi km ) Precip ( " mm )
12:15 am 00:15 Partly Cloudy 34 1.1 32 0.2 94 94 NW 5 7 29.83 1010 10 16 N/A
12:35 am 00:35 Clear 34 1.2 32 0.2 93 93 NW 3 6 29.80 1009 10 16 N/A
12:55 am 00:55 Clear 34 1.2 33 0.3 94 94 WNW 3 6 29.80 1009 10 16 N/A
1:15 am 01:15 Clear 34 1.3 33 0.3 93 93 W 5 7 29.80 1009 10 16 N/A
1:35 am 01:35 Clear 35 1.5 33 0.5 93 93 WNW 5 7 29.80 1009 10 16 N/A
1:55 am 01:55 Mostly Cloudy 34 1.2 33 0.3 94 94 NNW 5 7 29.80 1009 10 16 N/A
2:15 am 02:15 Mostly Cloudy 35 1.6 33 0.7 94 94 NW 5 7 29.80 1009 10 16 N/A
2:35 am 02:35 Partly Cloudy 35 1.7 33 0.8 94 94 N N/A 29.80 1009 10 16 N/A
2:55 am 02:55 Mostly Cloudy 35 1.6 33 0.6 93 93 NW 3 6 29.80 1009 10 16 N/A
3:15 am 03:15 Mostly Cloudy 35 1.5 33 0.5 93 93 NNW 6 9 29.80 1009 10 16 N/A
3:35 am 03:35 Mostly Cloudy 35 1.5 33 0.5 93 93 NW 3 6 29.80 1009 10 16 N/A
3:55 am 03:55 Cloudy 35 1.5 33 0.5 93 93 WNW 3 6 29.80 1009 10 16 N/A
4:15 am 04:15 Cloudy 35 1.7 33 0.7 93 93 WNW 6 9 29.80 1009 10 16 N/A
4:35 am 04:35 Cloudy 35 1.8 33 0.8 93 93 WNW 3 6 29.80 1009 10 16 N/A
4:55 am 04:55 Cloudy 36 2.2 34 1.2 93 93 WNW 5 7 29.80 1009 10 16 N/A
5:15 am 05:15 Cloudy 36 2.2 34 1.1 93 93 W 5 7 29.80 1009 10 16 N/A
5:35 am 05:35 Cloudy 37 2.6 35 1.5 93 93 W 7 11 29.80 1009 10 16 N/A
5:55 am 05:55 Cloudy 37 2.5 34 1.3 92 92 WNW 6 9 29.80 1009 10 16 N/A
6:15 am 06:15 Cloudy 37 2.6 35 1.5 93 93 NW 7 11 29.80 1009 10 16 N/A
6:35 am 06:35 Cloudy 37 2.8 35 1.5 91 91 W 6 9 29.80 1009 10 16 N/A
6:55 am 06:55 Cloudy 38 3.2 35 1.8 91 91 WNW 10 17 29.80 1009 10 16 N/A
7:15 am 07:15 Cloudy 38 3.3 35 1.8 90 90 WNW 7 11 29.80 1009 10 16 N/A
7:35 am 07:35 Cloudy 38 3.6 36 2.1 90 90 WNW 10 17 29.83 1010 10 16 N/A
7:55 am 07:55 Cloudy 39 4 36 2.3 89 89 WNW 12 19 29.83 1010 10 16 N/A
8:15 am 08:15 Cloudy with Drizzle 39 4.1 36 2.3 88 88 NW 10 17 29.83 1010 10 16 N/A
8:35 am 08:35 Cloudy 40 4.3 37 2.6 89 89 NW 8 13 29.83 1010 10 16 N/A
8:55 am 08:55 Cloudy 40 4.7 37 2.9 88 88 WNW 9 15 29.80 1009 10 16 N/A
9:15 am 09:15 Cloudy 41 4.9 38 3.1 88 88 WNW 9 15 29.80 1009 10 16 N/A
9:35 am 09:35 Cloudy with Drizzle 41 5.2 38 3.5 89 89 WNW 9 15 29.83 1010 10 16 N/A
9:55 am 09:55 Cloudy 43 6.1 39 4.1 87 87 NW 10 17 29.83 1010 10 16 N/A
10:15 am 10:15 Cloudy 43 6 39 4 87 87 NW 12 19 29.83 1010 10 16 N/A
10:35 am 10:35 Cloudy with Drizzle 43 6.1 40 4.2 88 88 NNW 8 13 29.83 1010 10 16 N/A
10:55 am 10:55 Cloudy 45 7 41 5.1 88 88 NNW 6 9 29.83 1010 10 16 N/A
11:15 am 11:15 Cloudy 46 7.8 42 5.7 87 87 NW 3 6 29.83 1010 10 16 N/A
11:35 am 11:35 Cloudy 47 8.5 43 6 84 84 NNW 10 17 29.80 1009 10 16 N/A
11:55 am 11:55 Cloudy 48 8.7 42 5.5 81 81 NNW 10 17 29.80 1009 10 16 N/A
12:15 pm 12:15 Cloudy 48 8.8 42 5.3 79 79 NNW 9 15 29.80 1009 10 16 N/A
12:35 pm 12:35 Mostly Cloudy 49 9.2 42 5.6 78 78 NNW 8 13 29.80 1009 10 16 N/A
12:55 pm 12:55 Mostly Cloudy 49 9.6 42 5.4 75 75 NNW 13 20 29.80 1009 10 16 N/A
1:15 pm 13:15 Mostly Cloudy 49 9.4 41 5.2 75 75 N 10 17 29.80 1009 10 16 N/A
1:35 pm 13:35 Mostly Cloudy 51 10.3 42 5.3 71 71 NNW 13 20 29.80 1009 10 16 N/A
1:55 pm 13:55 Cloudy 51 10.4 42 5.4 71 71 NNW 9 15 29.77 1008 10 16 N/A
2:15 pm 14:15 Mostly Cloudy 51 10.7 42 5.4 70 70 N 12 19 29.80 1009 10 16 N/A
2:35 pm 14:35 Partly Cloudy 51 10.5 42 5.3 70 70 N 9 15 29.77 1008 10 16 N/A
2:55 pm 14:55 Partly Cloudy 51 10.5 41 5.2 70 70 N 12 19 29.80 1009 10 16 N/A
3:15 pm 15:15 Mostly Cloudy 50 10.1 41 5 71 71 N 9 15 29.80 1009 10 16 N/A
3:35 pm 15:35 Cloudy 49 9.5 41 5 74 74 N 7 11 29.80 1009 10 16 N/A
3:55 pm 15:55 Cloudy 49 9.5 40 4.7 72 72 N 9 15 29.80 1009 10 16 N/A
4:15 pm 16:15 Cloudy 48 9 40 4.6 74 74 N 6 9 29.80 1009 10 16 N/A
4:35 pm 16:35 Mostly Cloudy 48 8.7 40 4.5 75 75 N 7 11 29.80 1009 10 16 N/A
4:55 pm 16:55 Partly Cloudy 46 7.5 39 3.9 78 78 N 6 9 29.83 1010 10 16 N/A
5:15 pm 17:15 Clear 44 6.4 38 3.6 82 82 NNE 3 6 29.85 1011 10 16 N/A
5:35 pm 17:35 Clear 42 5.6 38 3.2 85 85 NE 3 6 29.85 1011 10 16 N/A
5:55 pm 17:55 Clear 40 4.2 37 2.5 89 89 N N/A 29.88 1012 10 16 N/A
6:15 pm 18:15 Clear 40 4.5 38 3.1 91 91 N N/A 29.88 1012 10 16 N/A
6:35 pm 18:35 Clear 35 1.9 33 0.4 90 90 N N/A 29.91 1013 10 16 N/A
6:55 pm 18:55 Clear 36 2 34 1 93 93 S 3 6 29.88 1012 10 16 N/A
7:15 pm 19:15 Clear with Mist and Fog 35 1.4 33 0.4 93 93 SSE 3 6 29.91 1013 3 4 N/A
7:35 pm 19:35 Clear 35 1.6 33 0.8 94 94 N N/A 29.91 1013 7 11 N/A
7:55 pm 19:55 Mostly Cloudy with Fog 34 1.2 33 0.5 95 95 S 3 6 29.91 1013 1 1 N/A
8:15 pm 20:15 Mostly Cloudy with Freezing Fog 31 -0.3 30 -0.9 96 96 N N/A 29.91 1013 1 1 N/A
8:35 pm 20:35 Cloudy with Mist and Fog 31 -0.5 30 -1.2 95 95 ENE 5 7 29.91 1013 1 2 N/A
8:55 pm 20:55 Cloudy with Freezing Fog 30 -1 29 -1.5 96 96 ENE 3 6 29.97 1015 0 0 N/A
9:15 pm 21:15 Cloudy with Freezing Fog 30 -1.1 29 -1.7 96 96 N N/A 29.97 1015 1 1 N/A
9:35 pm 21:35 Cloudy with Freezing Fog 30 -1.2 29 -1.8 96 96 N N/A 29.97 1015 1 1 N/A
9:55 pm 21:55 Cloudy with Mist and Fog 30 -1 29 -1.6 96 96 N N/A 29.97 1015 1 1 N/A
10:15 pm 22:15 Cloudy with Freezing Fog 29 -1.7 28 -2.4 95 95 N N/A 29.97 1015 0 0 N/A
10:35 pm 22:35 Cloudy with Freezing Fog 28 -2 27 -2.7 95 95 N N/A 29.97 1015 1 1 N/A
10:55 pm 22:55 Cloudy with Freezing Fog 28 -2.4 27 -3 96 96 N N/A 29.97 1015 1 1 N/A
11:15 pm 23:15 Cloudy with Freezing Fog 28 -2.2 27 -3 94 94 N 3 6 29.97 1015 1 1 N/A
11:35 pm 23:35 Cloudy with Freezing Fog 28 -2 27 -2.7 95 95 N N/A 29.97 1015 1 1 N/A
11:55 pm 23:55 Cloudy with Freezing Fog 29 -1.6 28 -2.3 95 95 N N/A 29.97 1015 0 0 N/A

Powered by AerisWeather